EW0234 Weather Reports


Display with metric or nautical units.
time (UTC)temp
F
wind
direction
speed
MPH
gust
MPH
rain 1hr
in
rain 24hr
in
rain mn
in
humidity
%
barometer
mb
20190625114041 60 192 0.0 0.0 0.00 0.01 0.00 53 1009.4
20190625113542 60 192 0.0 0.0 0.00 0.01 0.00 51 1009.4
20190625113110 60 192 0.0 1.0 0.00 0.01 0.00 51 1009.4
20190625112538 60 192 0.0 4.0 0.00 0.01 0.00 51 1009.2
20190625112042 60 192 0.0 4.0 0.00 0.01 0.00 50 1009.2
20190625111602 60 182 0.0 0.0 0.00 0.01 0.00 52 1009.2
20190625111045 61 182 0.0 0.0 0.00 0.01 0.00 52 1009.2
20190625110536 61 182 0.0 0.0 0.00 0.01 0.00 51 1009.4
20190625110107 61 182 0.0 0.0 0.00 0.01 0.00 51 1009.3
20190625105539 61 182 0.0 0.0 0.00 0.01 0.00 51 1009.1
20190625105035 61 182 0.0 0.0 0.00 0.01 0.00 49 1009.1
20190625104614 61 182 0.0 0.0 0.00 0.01 0.00 50 1009.1
20190625104037 61 182 0.0 1.0 0.00 0.01 0.00 49 1009.2
20190625103533 61 182 0.0 5.0 0.00 0.01 0.00 50 1009.3
20190625103309 61 171 0.0 0.0 0.00 0.01 0.00 50 1009.3
20190625102533 61 171 0.0 0.0 0.00 0.01 0.00 50 1009.3
20190625102043 62 171 0.0 0.0 0.00 0.01 0.00 50 1009.3
20190625101559 62 171 0.0 0.0 0.00 0.01 0.00 49 1009.3
20190625101035 62 171 0.0 5.0 0.00 0.01 0.00 48 1009.2
20190625100532 62 171 0.0 5.0 0.00 0.01 0.00 48 1009.2
20190625100101 62 172 0.0 6.0 0.00 0.01 0.00 48 1009.1
20190625095535 62 172 0.0 6.0 0.00 0.01 0.00 47 1009.0
20190625095033 61 171 0.0 5.0 0.00 0.01 0.00 49 1008.9
20190625094601 61 171 0.0 7.0 0.00 0.01 0.00 50 1008.8
20190625094032 61 169 0.0 7.0 0.00 0.01 0.00 50 1008.7
20190625093532 61 210 0.0 4.0 0.00 0.01 0.00 50 1008.8
20190625093057 61 225 0.0 0.0 0.00 0.01 0.00 50 1008.7
20190625092534 61 225 0.0 0.0 0.00 0.01 0.00 50 1008.6
20190625092029 61 225 0.0 4.0 0.00 0.01 0.00 51 1008.6
20190625091615 62 236 0.0 3.0 0.00 0.01 0.00 50 1008.7
20190625091032 62 286 0.0 0.0 0.00 0.01 0.00 50 1008.6
20190625090528 63 286 0.0 0.0 0.00 0.01 0.00 49 1008.5
20190625090032 63 286 0.0 0.0 0.00 0.01 0.00 48 1008.5
20190625085522 64 286 0.0 0.0 0.00 0.01 0.00 47 1008.5
20190625085020 64 286 0.0 0.0 0.00 0.01 0.00 46 1008.5
20190625084544 65 286 0.0 1.0 0.00 0.01 0.00 45 1008.7
20190625084024 65 286 0.0 1.0 0.00 0.01 0.00 44 1008.7
20190625083517 65 286 0.0 2.0 0.00 0.01 0.00 43 1008.7
20190625083030 65 287 0.0 4.0 0.00 0.01 0.00 41 1008.6
20190625082517 65 287 0.0 4.0 0.00 0.01 0.00 41 1008.7
20190625082016 66 252 0.0 2.0 0.00 0.01 0.00 42 1008.8
20190625081612 66 252 0.0 4.0 0.00 0.01 0.00 42 1008.8
20190625081015 66 252 0.0 6.0 0.00 0.01 0.00 41 1008.9
20190625080517 66 252 0.0 6.0 0.00 0.01 0.00 40 1008.9
20190625080028 66 244 0.0 5.0 0.00 0.01 0.00 40 1008.9
20190625075518 67 240 0.0 6.0 0.00 0.01 0.00 40 1008.8
20190625075014 67 237 0.0 8.0 0.00 0.01 0.00 40 1009.0
20190625074523 67 257 1.0 8.0 0.00 0.01 0.00 39 1009.0
20190625074022 67 227 0.0 8.0 0.00 0.01 0.00 38 1009.0
20190625073518 68 242 1.0 8.0 0.00 0.01 0.00 38 1009.1
20190625073015 68 226 0.0 8.0 0.00 0.01 0.00 38 1008.9
20190625072511 67 233 1.0 8.0 0.00 0.01 0.00 38 1009.0
20190625072010 67 267 1.0 5.0 0.00 0.01 0.00 39 1009.0
20190625071519 66 266 0.0 6.0 0.00 0.01 0.00 40 1008.9
20190625071014 66 290 0.0 4.0 0.00 0.01 0.00 40 1009.0
20190625070509 66 296 0.0 8.0 0.00 0.01 0.00 40 1009.1
20190625070012 67 345 0.0 8.0 0.00 0.01 0.00 40 1009.0
20190625065514 67 292 0.0 8.0 0.00 0.01 0.00 40 1008.9
20190625065012 67 271 1.0 8.0 0.00 0.01 0.00 40 1009.0
20190625064508 67 314 0.0 9.0 0.00 0.01 0.00 40 1009.1
20190625064006 67 315 1.0 9.0 0.00 0.01 0.00 40 1009.2
20190625063512 67 340 0.0 5.0 0.00 0.01 0.00 40 1009.2
20190625063010 67 319 0.0 8.0 0.00 0.01 0.00 41 1009.2
20190625062511 67 355 2.0 8.0 0.00 0.01 0.00 41 1009.2
20190625062004 66 328 0.0 8.0 0.00 0.01 0.00 40 1009.2
20190625061506 66 255 1.0 8.0 0.00 0.01 0.00 41 1009.3
20190625061002 66 313 0.0 7.0 0.00 0.01 0.00 43 1009.3
20190625060501 66 324 0.0 7.0 0.00 0.01 0.00 43 1009.4
20190625060229 66 302 0.0 6.0 0.00 0.01 0.01 43 1009.4
20190625055600 67 259 0.0 6.0 0.00 0.01 0.01 42 1009.4
20190625055100 67 229 0.0 0.0 0.00 0.01 0.01 42 1009.4
20190625054723 67 229 0.0 0.0 0.00 0.01 0.01 42 1009.4
20190625054100 67 229 0.0 0.0 0.00 0.01 0.01 42 1009.5
20190625053609 67 229 0.0 2.0 0.00 0.01 0.01 42 1009.5
20190625053219 67 229 0.0 4.0 0.00 0.01 0.01 42 1009.6
20190625052610 67 228 0.0 4.0 0.00 0.01 0.01 42 1009.7
20190625052103 67 228 0.0 4.0 0.00 0.01 0.01 42 1009.7
20190625051655 67 227 0.0 7.0 0.00 0.01 0.01 41 1010.1
20190625051102 67 225 0.0 7.0 0.00 0.01 0.01 41 1010.0
20190625050601 67 296 0.0 6.0 0.00 0.01 0.01 41 1010.2
20190625050232 67 248 0.0 7.0 0.00 0.01 0.01 40 1010.3
20190625045558 68 236 2.0 7.0 0.00 0.01 0.01 39 1010.4
20190625045057 68 308 0.0 15.0 0.00 0.01 0.01 39 1010.4
20190625044647 68 226 1.0 15.0 0.00 0.01 0.01 39 1010.5
20190625044059 67 288 1.0 14.0 0.00 0.01 0.01 40 1010.5
20190625043558 67 271 2.0 24.0 0.00 0.01 0.01 40 1010.5
20190625043141 68 233 4.0 24.0 0.00 0.01 0.01 40 1010.6
20190625042557 68 235 9.0 24.0 0.00 0.01 0.01 39 1010.5
20190625042057 68 198 7.0 20.0 0.00 0.01 0.01 40 1010.4
20190625041646 68 213 1.0 11.0 0.00 0.01 0.01 40 1010.3
20190625041056 68 265 2.0 21.0 0.00 0.01 0.01 39 1010.3
20190625040603 68 275 3.0 23.0 0.00 0.01 0.01 39 1010.3
20190625040250 69 224 7.0 23.0 0.00 0.01 0.01 38 1010.0
20190625035600 69 246 4.0 20.0 0.00 0.01 0.01 37 1010.3
20190625035100 70 284 6.0 18.0 0.00 0.01 0.01 35 1010.0
20190625034644 70 11 3.0 15.0 0.00 0.01 0.01 34 1009.9
20190625034059 71 299 0.0 15.0 0.00 0.01 0.01 33 1009.5
20190625033607 71 254 0.0 8.0 0.00 0.01 0.01 31 1009.7
20190625033138 71 335 0.0 12.0 0.00 0.01 0.01 31 1009.3
20190625032559 71 234 4.0 12.0 0.00 0.01 0.01 31 1009.2
20190625032055 72 248 2.0 12.0 0.00 0.01 0.01 30 1008.8
20190625031646 72 277 1.0 12.0 0.00 0.01 0.01 30 1008.9
20190625031054 73 342 1.0 12.0 0.00 0.01 0.01 29 1008.8
20190625030557 73 327 1.0 14.0 0.00 0.01 0.01 28 1008.8
20190625030221 73 306 3.0 14.0 0.00 0.02 0.01 28 1008.7
20190625025554 74 281 0.0 1.0 0.00 0.02 0.01 28 1008.5
20190625025053 74 256 0.0 6.0 0.00 0.02 0.01 27 1008.3
20190625024606 74 257 0.0 6.0 0.00 0.02 0.01 27 1008.2
20190625024100 74 263 0.0 4.0 0.00 0.02 0.01 27 1008.1
20190625023553 75 263 0.0 6.0 0.00 0.02 0.01 27 1008.1
20190625023205 75 221 0.0 6.0 0.00 0.02 0.01 26 1008.1
20190625022553 75 221 0.0 7.0 0.00 0.02 0.01 27 1007.9
20190625022052 75 213 0.0 7.0 0.00 0.02 0.01 27 1007.9
20190625021724 76 207 0.0 2.0 0.00 0.02 0.01 27 1007.9
20190625021057 76 257 0.0 5.0 0.00 0.02 0.01 26 1007.9
20190625020552 76 257 0.0 7.0 0.00 0.02 0.01 25 1007.8
20190625020129 77 257 0.0 7.0 0.00 0.02 0.01 25 1007.9
20190625015607 77 243 1.0 7.0 0.00 0.02 0.01 25 1007.9
20190625015051 77 239 0.0 6.0 0.00 0.02 0.01 25 1007.8
20190625014725 77 233 0.0 6.0 0.00 0.02 0.01 25 1007.7
20190625014059 77 225 0.0 9.0 0.00 0.02 0.01 25 1007.8
20190625013601 78 223 0.0 9.0 0.00 0.02 0.01 25 1007.7
20190625013131 78 209 1.0 7.0 0.00 0.02 0.01 25 1007.7
20190625012550 79 209 2.0 10.0 0.00 0.02 0.01 24 1007.6
20190625012054 79 209 2.0 10.0 0.00 0.02 0.01 23 1007.6
20190625011710 79 231 1.0 6.0 0.00 0.02 0.01 24 1007.5
20190625011050 80 188 1.0 8.0 0.00 0.02 0.01 23 1007.5
20190625010552 80 217 1.0 8.0 0.00 0.02 0.01 23 1007.5
20190625010104 80 243 0.0 9.0 0.00 0.02 0.01 23 1007.5
20190625005049 80 210 2.0 8.0 0.00 0.02 0.01 23 1007.5
20190625004555 80 238 1.0 6.0 0.00 0.02 0.01 24 1007.5
20190625004051 80 232 0.0 8.0 0.00 0.02 0.01 22 1007.4
20190625003548 80 223 2.0 8.0 0.00 0.02 0.01 22 1007.5
20190625003133 81 246 1.0 8.0 0.00 0.02 0.01 23 1007.5
20190625002548 81 259 0.0 7.0 0.00 0.02 0.01 22 1007.5
20190625002048 81 169 0.0 7.0 0.00 0.02 0.01 23 1007.4
20190625001621 81 236 2.0 7.0 0.00 0.02 0.01 22 1007.5
20190625001046 80 235 2.0 8.0 0.00 0.02 0.01 23 1007.6
20190625000546 80 190 1.0 8.0 0.00 0.02 0.01 24 1007.6
20190625000148 80 172 0.0 6.0 0.00 0.02 0.01 23 1007.5
20190624235545 80 172 0.0 5.0 0.00 0.02 0.01 25 1007.6
20190624235049 80 152 0.0 2.0 0.00 0.02 0.01 25 1007.7
20190624234643 79 151 0.0 2.0 0.00 0.02 0.01 25 1007.7
20190624234045 78 151 0.0 5.0 0.00 0.02 0.01 26 1007.7
20190624233556 78 151 0.0 4.0 0.00 0.02 0.01 26 1007.7
20190624233207 78 151 0.0 0.0 0.00 0.02 0.01 26 1007.6
20190624232552 79 151 0.0 4.0 0.00 0.02 0.01 26 1007.6
20190624232044 79 152 0.0 4.0 0.00 0.02 0.01 25 1007.7
20190624231621 79 152 0.0 4.0 0.00 0.02 0.01 26 1007.8
20190624231044 79 86 0.0 4.0 0.00 0.02 0.01 26 1007.7
20190624230550 79 182 0.0 9.0 0.00 0.02 0.01 26 1007.7
20190624230132 79 184 3.0 9.0 0.00 0.02 0.01 25 1007.9
20190624225542 79 169 0.0 7.0 0.00 0.02 0.01 26 1007.8
20190624225041 80 169 0.0 7.0 0.00 0.02 0.01 25 1007.9
20190624224707 80 136 0.0 6.0 0.00 0.02 0.01 25 1007.9
20190624224040 79 128 0.0 6.0 0.00 0.02 0.01 24 1008.1
20190624223540 80 144 0.0 2.0 0.00 0.02 0.01 24 1008.1
20190624223144 80 144 0.0 7.0 0.00 0.02 0.01 24 1008.0
20190624222542 80 144 1.0 7.0 0.00 0.02 0.01 23 1008.0
20190624222040 80 144 0.0 7.0 0.00 0.02 0.01 25 1008.0
20190624221622 80 178 1.0 7.0 0.00 0.02 0.01 24 1008.1
20190624221040 80 201 1.0 10.0 0.00 0.02 0.01 25 1008.1
20190624220543 79 176 3.0 10.0 0.00 0.02 0.01 25 1008.1
20190624220119 79 149 0.0 13.0 0.00 0.02 0.01 26 1008.1
20190624215542 79 138 4.0 13.0 0.00 0.02 0.01 24 1008.1
20190624215045 80 167 3.0 9.0 0.00 0.02 0.01 25 1008.1
20190624214648 80 343 0.0 2.0 0.00 0.02 0.01 25 1008.1
20190624214036 79 344 0.0 6.0 0.00 0.02 0.01 25 1008.2
20190624213535 79 340 0.0 6.0 0.00 0.02 0.01 25 1008.3
20190624213053 79 306 0.0 6.0 0.00 0.02 0.01 24 1008.3
20190624212534 79 260 0.0 6.0 0.00 0.02 0.01 26 1008.3
20190624212034 79 302 0.0 4.0 0.00 0.02 0.01 26 1008.4
20190624211702 79 301 0.0 7.0 0.00 0.02 0.01 24 1008.5
20190624211034 79 178 1.0 7.0 0.00 0.02 0.01 25 1008.6
20190624210536 79 254 0.0 10.0 0.00 0.02 0.01 26 1008.7
20190624210136 79 216 1.0 10.0 0.00 0.02 0.01 26 1008.8
20190624205533 79 252 1.0 7.0 0.00 0.02 0.01 26 1008.8
20190624205030 79 322 0.0 7.0 0.00 0.02 0.01 25 1008.8
20190624204544 79 280 0.0 8.0 0.00 0.02 0.01 25 1008.8
20190624204029 79 230 1.0 8.0 0.00 0.02 0.01 25 1008.8
20190624203529 79 308 0.0 11.0 0.00 0.02 0.01 24 1008.9
20190624203121 79 251 2.0 11.0 0.00 0.02 0.01 24 1008.9
20190624202528 79 329 0.0 10.0 0.00 0.02 0.01 25 1009.0
20190624202028 80 304 2.0 10.0 0.00 0.02 0.01 23 1009.0
20190624201557 80 19 0.0 9.0 0.00 0.02 0.01 23 1009.0
20190624201026 81 46 2.0 7.0 0.00 0.02 0.01 22 1009.1
20190624200525 81 311 1.0 13.0 0.00 0.02 0.01 22 1009.2
20190624200033 80 218 1.0 13.0 0.00 0.02 0.01 25 1009.3
20190624195522 80 205 3.0 15.0 0.00 0.02 0.01 21 1009.3
20190624195021 80 221 2.0 15.0 0.00 0.02 0.01 23 1009.4
20190624194536 80 275 1.0 10.0 0.00 0.02 0.01 23 1009.5
20190624194034 79 236 1.0 13.0 0.00 0.02 0.01 25 1009.5
20190624193518 78 198 4.0 13.0 0.00 0.02 0.01 25 1009.7
20190624193030 78 194 1.0 12.0 0.00 0.02 0.01 25 1009.7
20190624192524 78 236 3.0 12.0 0.00 0.02 0.01 25 1009.7
20190624192017 78 236 4.0 12.0 0.00 0.02 0.01 24 1009.8
20190624191548 78 249 2.0 13.0 0.00 0.02 0.01 25 1009.8
20190624191024 78 228 2.0 12.0 0.00 0.02 0.01 25 1009.8
20190624190513 78 249 2.0 10.0 0.00 0.02 0.01 26 1009.9
20190624190046 78 355 4.0 10.0 0.00 0.02 0.01 24 1009.9
20190624185520 78 246 2.0 9.0 0.00 0.02 0.01 24 1010.0
20190624185012 78 229 2.0 9.0 0.00 0.02 0.01 24 1010.1
20190624184524 77 300 2.0 9.0 0.00 0.02 0.01 25 1010.1
20190624184013 77 236 3.0 9.0 0.00 0.02 0.01 24 1010.2
20190624183513 77 346 0.0 10.0 0.00 0.02 0.01 27 1010.2
20190624183029 77 198 3.0 15.0 0.00 0.02 0.01 25 1010.4
20190624182513 77 188 3.0 15.0 0.00 0.02 0.01 27 1010.3
20190624182007 77 238 4.0 13.0 0.00 0.02 0.01 26 1010.5
20190624181542 77 225 1.0 13.0 0.00 0.02 0.01 29 1010.5
20190624181004 77 242 1.0 16.0 0.00 0.02 0.01 27 1010.5
20190624180503 77 218 7.0 16.0 0.00 0.02 0.01 26 1010.5
20190624180004 77 232 1.0 12.0 0.00 0.02 0.01 27 1010.5
20190624175501 76 233 5.0 13.0 0.00 0.02 0.01 27 1010.7
20190624175003 76 221 3.0 22.0 0.00 0.02 0.01 28 1010.8
20190624174703 75 205 3.0 22.0 0.00 0.02 0.01 28 1010.9
20190624174106 75 238 5.0 14.0 0.00 0.02 0.01 28 1010.9
20190624173559 75 187 6.0 14.0 0.00 0.02 0.01 29 1011.1
20190624173154 75 242 3.0 16.0 0.00 0.02 0.01 29 1011.1
20190624172557 75 248 7.0 16.0 0.00 0.02 0.01 27 1011.1
20190624172102 75 246 5.0 14.0 0.00 0.02 0.01 28 1011.0
20190624171632 75 194 5.0 13.0 0.00 0.02 0.01 29 1011.0
20190624171056 75 260 3.0 10.0 0.00 0.02 0.01 28 1011.0
20190624170559 76 213 0.0 8.0 0.00 0.02 0.01 29 1011.0
20190624170141 76 239 0.0 10.0 0.00 0.04 0.01 29 1011.0
20190624165600 76 182 0.0 6.0 0.00 0.04 0.01 28 1011.1
20190624165053 76 221 0.0 0.0 0.00 0.04 0.01 28 1011.0
20190624164104 75 221 0.0 4.0 0.00 0.04 0.01 32 1011.2
20190624163551 74 229 0.0 4.0 0.00 0.04 0.01 32 1011.2
20190624162552 73 192 0.0 4.0 0.00 0.04 0.01 32 1011.2
20190624162048 73 192 0.0 7.0 0.00 0.04 0.01 34 1011.2
20190624161623 73 192 0.0 7.0 0.00 0.04 0.01 31 1011.3
20190624161048 73 178 1.0 8.0 0.00 0.04 0.01 31 1011.3
20190624160548 73 150 3.0 9.0 0.00 0.04 0.01 32 1011.4
20190624160120 73 184 0.0 6.0 0.00 0.04 0.01 33 1011.5
20190624155548 73 243 0.0 9.0 0.00 0.04 0.01 33 1011.5
20190624155042 72 224 2.0 9.0 0.00 0.04 0.01 32 1011.6
20190624154643 72 227 1.0 9.0 0.00 0.04 0.01 32 1011.7
20190624154040 72 246 3.0 9.0 0.00 0.04 0.01 32 1011.7
20190624153540 71 204 1.0 11.0 0.00 0.04 0.01 35 1011.7
20190624153103 71 237 1.0 9.0 0.00 0.04 0.01 35 1011.7
20190624152535 71 258 2.0 12.0 0.00 0.04 0.01 35 1011.5
20190624152037 70 198 5.0 12.0 0.00 0.04 0.01 37 1011.4
20190624151557 69 173 3.0 10.0 0.00 0.04 0.01 40 1011.6
20190624151033 68 225 0.0 6.0 0.00 0.04 0.01 47 1011.5
20190624150533 66 229 0.0 6.0 0.00 0.04 0.01 52 1011.6
20190624150145 65 198 0.0 5.0 0.00 0.04 0.01 57 1011.7
20190624145525 63 180 1.0 5.0 0.00 0.04 0.01 62 1011.8
20190624145025 62 180 0.0 6.0 0.00 0.04 0.01 64 1011.9
20190624144631 62 180 0.0 6.0 0.00 0.04 0.01 64 1012.0
20190624144028 61 107 0.0 4.0 0.00 0.04 0.01 64 1012.0
20190624143520 61 106 0.0 3.0 0.00 0.04 0.01 65 1012.2
20190624143030 61 105 0.0 1.0 0.00 0.04 0.01 68 1012.3
20190624142521 60 105 0.0 1.0 0.00 0.04 0.01 69 1012.4
20190624142021 59 105 0.0 0.0 0.00 0.04 0.01 69 1012.4
20190624141556 59 105 0.0 0.0 0.00 0.04 0.01 70 1012.4
20190624141013 58 105 0.0 0.0 0.00 0.04 0.01 71 1012.5
20190624140512 57 105 0.0 1.0 0.00 0.04 0.01 74 1012.6
20190624140029 57 105 0.0 4.0 0.00 0.04 0.01 75 1012.6
20190624135512 56 98 0.0 0.0 0.00 0.04 0.01 76 1012.8
20190624135007 56 98 0.0 0.0 0.00 0.04 0.01 77 1012.8
20190624134529 55 98 0.0 0.0 0.00 0.04 0.01 80 1012.8
20190624134009 54 98 0.0 0.0 0.00 0.04 0.01 80 1012.8
20190624133504 53 98 0.0 0.0 0.00 0.04 0.01 81 1012.9
20190624133012 53 98 0.0 0.0 0.00 0.04 0.01 82 1013.0
20190624132059 52 98 0.0 0.0 0.00 0.04 0.01 84 1012.9
20190624131639 51 98 0.0 0.0 0.00 0.04 0.01 85 1013.0
20190624131102 50 98 0.0 0.0 0.00 0.04 0.01 87 1013.1
20190624130557 50 98 0.0 0.0 0.00 0.04 0.01 88 1013.1
20190624130112 50 98 0.0 0.0 0.00 0.04 0.01 88 1013.1
20190624125555 50 98 0.0 0.0 0.00 0.04 0.01 88 1013.1
20190624125055 49 98 0.0 0.0 0.00 0.04 0.01 89 1013.0
20190624124709 49 98 0.0 0.0 0.00 0.04 0.01 90 1013.0
20190624124103 48 98 0.0 0.0 0.01 0.04 0.01 91 1013.0
20190624123600 48 98 0.0 0.0 0.01 0.04 0.01 92 1013.1
20190624123107 47 98 0.0 0.0 0.01 0.04 0.01 92 1013.1
20190624122555 47 98 0.0 0.0 0.01 0.04 0.01 92 1013.0
20190624122051 47 98 0.0 0.0 0.01 0.04 0.01 92 1013.0
20190624121620 46 98 0.0 0.0 0.01 0.04 0.01 93 1013.0
20190624121053 46 98 0.0 0.0 0.01 0.04 0.01 93 1013.0
20190624120552 45 98 0.0 0.0 0.01 0.04 0.01 92 1013.0
20190624120120 45 98 0.0 0.0 0.01 0.04 0.01 92 1013.0
20190624115549 45 98 0.0 0.0 0.01 0.04 0.01 92 1013.0
20190624115044 45 98 0.0 0.0 0.01 0.04 0.01 92 1012.9
20190624114557 45 98 0.0 0.0 0.01 0.04 0.01 92 1013.0